Regional Weather Roundup
Issued by NWS

Home | Current Version | Previous Version | Text Only | Print | Product List | Glossary Off
Versions: 1 2 3 4 5 6 7 8 9 10 11 12 13 14 15 16 17 18 19 20 21 22 23 24 25 26 27 28 29 30 31 32 33 34 35 36 37 38 39 40 41 42 43 44 45 46 47 48 49 50

000
ASUS45 KCYS 040610
RWRWY

WYOMING REGIONAL WEATHER ROUNDUP
NATIONAL WEATHER SERVICE CHEYENNE WY
1200 AM MDT WED MAY 04 2016

NOTE:  "FAIR" INDICATES FEW OR NO CLOUDS BELOW 12,000 FEET
WITH NO SIGNIFICANT WEATHER AND/OR OBSTRUCTIONS TO VISIBILITY.

WYZ001-040700-
YELLOWSTONE NATIONAL PARK

CITY           SKY/WX    TMP DP  RH WIND       PRES   REMARKS
LK YELLOWSTONE   N/A     31  25  78 CALM      30.34S
6HR MIN TEMP:  31; 6HR MAX TEMP:  56;

W YELLOWSTONE  NOT AVBL

$$
WYZ002>013-054>058-071-098>099-040700-
NORTHERN WYOMING

CITY           SKY/WX    TMP DP  RH WIND       PRES   REMARKS
JACKSON        FAIR      39  28  65 N7        30.27R WCI  34
CODY           FAIR      54  34  47 SW7       30.17S
GREYBULL       FAIR      57  32  38 SE3       30.12R
6HR MIN TEMP:  57; 6HR MAX TEMP:  79;

WORLAND        FAIR      54  36  50 VRB5      30.14R
6HR MIN TEMP:  51; 6HR MAX TEMP:  74;

SHERIDAN       FAIR      46  38  73 S3        30.13S
6HR MIN TEMP:  45; 6HR MAX TEMP:  73;

BUFFALO        FAIR      54  35  48 W6        30.19F
6HR MIN TEMP:  52; 6HR MAX TEMP:  70;

GILLETTE       FAIR      44  39  82 S5        30.16F
6HR MIN TEMP:  43; 6HR MAX TEMP:  70;

HULETT         FAIR      48  37  66 S7        30.17S
NEWCASTLE      FAIR      46  34  61 N6        30.19S

$$
WYZ014>020-022>026-101>103-040700-
CENTRAL WYOMING

CITY           SKY/WX    TMP DP  RH WIND       PRES   REMARKS
BIG PINEY      FAIR      37  25  61 NW6       30.29S WCI  32
6HR MIN TEMP:  37; 6HR MAX TEMP:  68;

PINEDALE       FAIR      43  28  56 E6        30.31R
DUBOIS         FAIR      41  27  56 W9        30.30S
LANDER         FAIR      52  34  50 CALM      30.20F
6HR MIN TEMP:  49; 6HR MAX TEMP:  68;

RIVERTON       FAIR      51  36  56 W9        30.22R
6HR MIN TEMP:  51; 6HR MAX TEMP:  69;

CASPER         FAIR      39  34  82 NW6       30.22S WCI  35
6HR MIN TEMP:  39; 6HR MAX TEMP:  67;

DOUGLAS        FAIR      43  37  79 CALM      30.22S
6HR MIN TEMP:  42; 6HR MAX TEMP:  69;


$$
WYZ021-027>030-104>119-040700-
SOUTHERN WYOMING

CITY           SKY/WX    TMP DP  RH WIND       PRES   REMARKS
EVANSTON       FAIR      50  22  33 E8        30.29S
6HR MIN TEMP:  50; 6HR MAX TEMP:  67;

KEMMERER         N/A     45  25  45 N7        30.30S
FORT BRIDGER   CLEAR     46  25  42 S10       30.31S
ROCK SPRINGS   FAIR      49  25  39 S7        30.28R
6HR MIN TEMP:  49; 6HR MAX TEMP:  64;

DIXON          FAIR      45  30  56 NE10      30.32S
RAWLINS        FAIR      38  30  73 CALM      30.29S
6HR MIN TEMP:  38; 6HR MAX TEMP:  65;

SARATOGA       FAIR      36  30  80 CALM      30.31S
LARAMIE        FAIR      37  31  78 S3        30.32S
6HR MIN TEMP:  36; 6HR MAX TEMP:  59;

CHEYENNE       FAIR      43  34  70 W12       30.27S
6HR MIN TEMP:  42; 6HR MAX TEMP:  62;

TORRINGTON     FAIR      50  38  63 E6        30.18R
6HR MIN TEMP:  50; 6HR MAX TEMP:  72;

PINE BLUFFS    FAIR      39  36  87 W3        30.23S

$$



USA.gov is the U.S. government's official web portal to all federal, state and local government web resources and services.